SCP
-0 -0 -0 -0 -0 -0 -0 -0 -0 -0 -0 -0 -0 -0 -0 -0 -0 -0 0 0 0 0 0 0 0 0 0 0 0 0 -0 -0 0 0 0 0 0 0 0 0 0 0 0 0 0 0 0
-0 -0 -0 -0 -0 -0 -0 -0 -0 -0 -0 -0 -0 -0 -0 -0 -0 0 0 0 0 -0 -0 0 0 0 0 0 0 0 -0 0 0 0 0 0 0 0 0 0 0 0 0 0 0 0 0
-0 -0 -0 -0 -0 -0 -0 -0 -0 -0 -0 -0 -0 -0 -0 -0 -0 0 0 0 0 -0 -0 0 0 0 0 0 0 0 0 0 0 0 0 0 0 0 0 0 0 0 0 0 0 0 0
-0 -0 -0 -0 -0 -0 -0 -0 -0 -0 -0 -0 -0 -0 -0 -0 -0 0 0 0 0 0 0 0 0 0 0 0 0 0 0 0 0 0 0 0 0 0 0 0 0 0 0 0 0 0 0
-0 -0 -0 -0 -0 -0 -0 -0 -0 -0 -0 -0 -0 -0 -0 -0 -0 -0 0 0 0 0 0 0 0 0 0 0 0 0 0 0 0 0 0 0 0 0 0 0 0 0 0 0 0 0 0
-0 -0 -0 -0 -0 -0 -0 -0 -0 -0 -0 -0 -0 -0 -0 -0 -0 -0 0 0 0 0 0 0 0 0 0 0 0 0 0 0 0 0 0 0 0 0 0 0 0 0 0 0 0 0 0
-0 -0 -0 -0 -0 -0 -0 -0 -0 -0 -0 -0 -0 -0 -0 -0 -0 -0 0 0 0 0 0 0 0 0 0 0 0 0 0 0 0 0 0 0 0 0 0 0 0 0 0 0 0 0 0
-0 -0 -0 -0 -0 -0 -0 -0 -0 -0 -0 -0 -0 -0 -0 -0 -0 0 0 0 0 0 0 0 0 0 0 0 0 0 0 0 0 0 0 0 0 0 0 0 0 0 0 0 0 0 0
-0 -0 -0 -0 -0 -0 -0 -0 -0 -0 -0 -0 -0 -0 -0 -0 0 0 0 0 0 0 0 0 0 0 0 0 0 0 0 0 0 0 0 0 0 0 0 0 0 0 0 0 0 0 0
-0 -0 -0 -0 -0 -0 -0 -0 -0 -0 -0 -0 -0 -0 -0 0 0 0 0 0 0 -0 0 0 0 0 0 0 0 0 0 0 0 0 0 0 0 0 0 0 0 0 0 0 0 0 0
-0 -0 -0 -0 -0 -0 -0 -0 -0 -0 -0 -0 -0 -0 0 0 0 0 0 0 0 0 0 0 0 0 0 0 0 0 0 0 0 0 0 0 0 0 0 0 0 0 0 0 0 0 0
-0 -0 -0 -0 -0 -0 -0 -0 -0 -0 -0 -0 -0 -0 -0 0 0 0 0 0 0 0 0 0 0 0 0 0 0 0 0 0 0 0 0 0 0 0 0 0 0 0 0 0 0 0 0
-0 -0 -0 -0 -0 -0 -0 -0 -0 -0 -0 -0 -0 0 0 0 0 0 0 0 0 0 0 0 0 0 0 0 0 0 0 0 0 0 0 0 0 0 0 0 0 0 0 0 0 0 0
-0 -0 -0 -0 -0 -0 -0 -0 -0 -0 -0 -0 -0 0 0 0 0 0 0 0 0 0 0 0 0 0 0 0 0 0 0 0 0 0 0 0 0 0 0 0 0 0 0 0 0 0 0
-0 -0 -0 -0 0 -0 -0 -0 -0 -0 -0 -0 -0 0 0 0 0 0 0 0 0 0 0 0 0 0 0 0 0 0 0 0 0 0 0 0 0 0 0 0 0 0 0 0 0 0 0
-0 -0 -0 -0 -0 -0 -0 -0 -0 -0 -0 -0 0 0 0 0 0 0 0 0 0 0 0 0 0 0 0 0 0 0 0 0 0 0 0 0 0 0 0 0 0 0 0 0 0 0 0
-0 -0 -0 -0 -0 -0 0 -0 -0 -0 -0 -0 0 0 0 0 0 0 0 0 0 0 0 0 0 0 0 0 0 0 0 0 0 0 0 0 0 0 0 0 0 0 0 0 0 0 0
-0 -0 -0 -0 -0 0 0 -0 -0 -0 -0 0 -0 0 0 0 0 0 0 0 0 0 0 0 0 0 0 0 0 0 0 0 0 0 0 0 0 0 0 0 0 0 0 0 0 0 0
0 0 0 0 0 0 0 0 -0 -0 0 -0 -0 0 0 0 0 0 0 0 0 0 0 0 0 0 0 0 0 0 0 0 0 0 0 0 0 0 0 0 0 0 0 0 0 0 0
0 0 0 0 0 0 0 0 0 0 0 -0 -0 -0 0 0 0 0 0 0 0 0 0 0 0 0 0 0 0 0 0 0 0 0 0 0 0 0 0 0 0 0 0 0 0 0 0
0 0 0 0 0 0 0 0 0 0 0 -0 -0 0 0 0 0 0 0 0 0 0 0 0 0 0 0 0 0 0 0 0 0 0 0 0 0 0 0 0 0 0 0 0 0 0 0
0 0 0 0 0 0 0 0 0 0 -0 -0 -0 0 0 0 0 0 0 0 0 0 0 0 0 0 0 0 0 0 0 0 0 0 0 0 0 0 0 0 0 0 0 0 0 0 0
0 0 0 0 0 0 0 0 0 0 -0 -0 -0 0 0 0 0 0 0 0 0 0 0 0 0 0 0 0 0 0 0 0 0 0 0 0 0 0 0 0 0 0 0 0 0 0 0
0 0 0 0 0 0 0 0 0 0 0 -0 -0 -0 0 0 0 0 0 0 0 0 0 0 0 0 0 0 0 0 0 0 0 0 0 0 0 0 0 0 0 0 0 0 0 0 0
0 0 0 0 0 0 0 0 0 0 0 -0 -0 -0 0 0 0 0 0 0 0 0 0 0 0 0 0 0 0 0 0 0 0 0 0 0 0 0 0 0 0 0 0 0 0 0 0
0 0 0 0 0 0 0 0 0 0 0 -0 -0 -0 -0 0 0 0 0 0 0 0 0 0 0 0 0 0 0 0 0 0 0 0 0 0 0 0 0 0 0 0 0 0 0 0 0
0 0 0 0 0 0 0 0 0 0 0 -0 0 0 0 0 0 0 0 0 0 0 0 0 0 0 0 0 0 0 0 0 0 0 0 0 0 0 0 0 0 0 0 0 0 0 0
0 0 0 0 0 0 0 0 0 0 0 0 0 0 0 0 0 0 0 -0 -0 -0 -0 -0 -0 -0 0 0 0 0 0 0 0 0 0 0 0 0 0 0 0 0 0 0 0 0 0
0 0 0 0 0 0 0 0 0 0 0 0 0 0 0 0 0 0 0 0 0 0 0 0 0 0 0 -0 0 0 0 0 0 0 0 0 0 0 0 0 0 0 0 0 0 0 0
Wind_Speed_500mb
40 42 43 45 45 45 46 47 48 48 47 45 41 36 29 23 14 10 8 6 6 5 7 8 6 4 3 3 4 6 10 24 19 19 25 26 18 10 9 9 7 4 3 7 15 21 12
42 42 44 45 45 46 46 47 47 47 46 45 41 37 31 24 17 11 7 6 5 4 5 8 7 5 4 5 8 11 13 17 16 21 29 24 12 13 13 5 2 4 7 14 11 11 4
45 45 45 45 46 47 48 48 47 47 46 45 42 37 31 23 17 12 8 7 5 3 4 7 6 6 10 7 13 15 17 11 11 22 29 22 14 8 7 9 2 2 7 5 6 8 7
48 48 48 48 48 49 48 48 48 47 46 45 43 38 30 22 15 12 8 6 4 1 2 5 6 6 8 12 18 18 21 17 17 25 24 16 7 7 6 6 5 3 2 6 6 10 6
51 51 52 52 52 52 51 50 49 49 47 46 43 39 32 20 12 12 11 6 5 4 4 5 7 7 6 13 20 23 20 11 21 25 20 19 7 7 6 5 5 9 7 4 5 3 13
56 57 58 58 57 56 55 54 52 50 49 47 44 40 33 19 7 9 13 4 7 7 8 9 13 7 10 8 20 24 26 13 17 30 18 8 6 5 5 4 4 5 3 3 7 1 12
59 60 62 62 60 59 58 58 56 53 51 48 44 40 33 16 5 3 10 5 8 5 8 13 4 5 5 6 12 20 33 26 25 15 11 7 11 14 9 6 10 10 6 7 9 10 7
61 64 66 66 64 62 62 62 61 58 54 50 45 41 31 12 6 4 4 5 10 13 17 28 32 39 36 13 7 18 37 20 12 15 12 9 18 16 10 16 12 9 5 7 14 4 8
62 65 68 68 68 66 66 67 67 63 57 51 47 41 26 6 11 9 9 8 13 16 10 15 15 21 34 35 12 25 44 21 9 14 16 16 4 18 14 12 12 9 9 8 9 7 5
61 66 69 70 69 70 70 70 70 69 62 52 46 37 20 3 11 15 7 8 16 16 6 6 6 5 22 18 12 23 44 22 7 23 13 11 9 15 11 13 17 10 21 11 8 5 11
61 64 69 73 75 74 73 72 72 70 67 54 42 29 16 4 7 9 6 10 16 1 6 3 4 9 21 22 13 24 45 22 19 14 13 8 16 14 11 12 24 8 15 15 9 13 6
59 63 68 73 75 79 79 75 72 71 64 58 38 24 13 16 12 7 10 10 3 2 7 5 8 7 12 16 4 12 18 12 8 11 8 12 5 9 10 8 22 8 7 6 4 7 16
59 62 67 71 75 79 81 79 75 71 65 57 30 14 15 11 13 19 10 7 2 6 9 9 7 8 9 13 13 8 18 23 20 13 23 23 28 8 10 14 10 9 8 7 10 10 12
59 63 67 70 74 77 79 79 75 72 67 54 29 2 8 11 17 22 11 3 6 3 5 7 9 13 6 1 6 8 13 17 18 8 5 18 12 19 16 28 14 16 16 12 10 9 6
58 63 67 70 73 74 76 76 74 72 67 56 30 6 9 14 17 20 10 1 3 2 10 14 17 4 3 1 5 6 13 14 14 26 22 14 15 0 4 8 13 12 15 3 7 3 6
59 62 68 69 71 74 73 73 74 71 66 59 35 5 13 20 19 17 3 2 2 5 12 5 6 3 4 3 4 3 8 5 8 11 13 9 17 8 7 9 14 10 19 7 5 10 12
60 63 65 67 71 73 72 72 73 72 69 61 34 5 20 23 17 5 2 2 6 6 14 6 6 8 6 6 4 4 3 3 6 7 11 11 9 8 8 18 28 10 11 3 3 6 15
61 61 64 67 70 68 68 69 72 75 71 66 29 5 31 29 8 7 5 14 12 12 14 8 6 6 6 5 7 8 12 8 15 2 6 3 5 13 22 4 3 1 14 25 17 21 6
58 60 63 66 64 65 64 66 67 69 70 63 26 14 27 23 7 8 13 9 7 16 14 13 7 11 9 7 9 10 8 7 25 4 4 10 8 15 13 8 7 11 10 6 4 4 25
57 58 60 58 60 64 67 68 66 65 61 43 17 9 16 26 19 8 12 7 11 21 3 14 13 10 10 6 4 10 7 6 21 15 13 6 11 16 25 14 4 8 11 13 18 17 27
54 55 54 56 59 63 65 66 68 67 61 35 18 8 9 9 12 13 7 12 12 13 14 20 6 21 13 9 11 7 13 18 9 18 10 4 18 14 24 23 17 27 30 24 28 34 29
50 50 51 54 57 60 62 66 69 68 59 36 12 13 14 9 12 15 14 9 12 11 9 12 12 27 19 11 10 11 18 7 9 16 14 10 12 17 35 29 26 40 43 43 42 42 40
46 47 50 53 54 56 58 60 62 61 57 27 24 16 8 14 13 10 5 14 15 23 13 8 30 30 24 21 32 38 43 43 39 26 15 11 6 5 33 17 23 31 41 44 41 33 33
43 45 47 48 51 52 51 51 52 52 48 40 34 20 11 6 14 10 25 25 19 20 27 43 47 31 15 43 48 43 45 51 54 48 45 23 17 8 14 7 27 23 10 25 39 39 36
42 42 44 46 47 47 46 45 42 42 39 35 30 25 8 6 16 23 24 25 35 33 28 30 34 23 35 30 17 18 13 14 30 50 48 47 30 16 12 21 31 36 3 8 16 24 27
38 39 42 43 42 39 39 40 39 35 37 36 25 22 7 12 3 19 21 27 22 22 20 25 33 38 19 15 12 15 11 15 10 4 10 39 34 26 11 15 26 18 7 46 14 31 20
36 38 39 37 34 33 36 38 37 36 35 34 30 24 12 12 16 23 21 17 17 23 15 33 21 19 16 7 13 17 23 18 15 20 20 9 15 34 29 17 17 8 11 6 21 1 18
34 35 34 32 30 30 32 34 35 35 33 35 31 24 18 16 45 22 19 28 26 26 16 26 20 2 8 8 6 7 10 5 10 15 19 12 8 11 21 24 36 22 9 22 13 18 17
32 31 30 29 28 28 30 35 36 36 35 37 35 31 26 28 42 54 28 26 36 36 36 13 14 15 9 8 4 6 10 5 10 8 5 13 9 10 7 6 14 14 18 25 22 24 13
Wind_Direction_500mb
35 32 29 27 25 23 21 21 20 19 16 13 11 10 7 4 357 346 339 329 316 286 228 213 225 260 265 233 151 125 141 166 174 167 161 147 137 124 123 129 127 172 183 219 286 299 297
32 30 27 24 22 20 18 16 16 14 13 11 8 5 4 4 3 358 358 351 338 317 203 190 203 230 230 227 151 140 139 164 179 171 158 146 125 119 101 116 132 194 268 284 301 310 322
32 29 26 23 19 17 15 13 11 10 8 7 6 1 358 357 0 0 2 7 11 47 149 180 195 226 238 201 164 154 152 165 165 168 162 149 104 101 123 135 359 132 291 324 50 346 35
31 29 26 22 19 15 12 10 7 5 3 1 1 359 351 349 350 357 348 349 348 24 179 193 209 238 248 195 185 178 171 177 163 165 174 169 138 106 121 122 62 101 91 161 25 334 24
30 28 26 22 17 14 11 8 4 2 360 357 356 355 346 342 339 350 341 305 326 289 254 232 241 240 244 197 185 182 173 169 168 164 156 150 164 124 120 130 129 35 115 31 334 49 338
31 27 24 20 15 12 9 7 3 0 358 354 351 352 344 334 317 342 350 318 308 279 253 254 249 274 219 163 182 190 180 154 154 158 148 170 127 141 120 186 219 140 150 192 267 124 307
27 24 21 18 16 13 11 8 3 360 356 352 348 348 342 327 267 331 11 346 332 305 271 238 232 237 168 183 183 183 181 147 142 162 173 158 199 204 187 162 130 141 167 264 263 246 270
24 21 19 16 15 14 13 10 5 1 358 352 348 347 340 322 214 197 53 73 16 316 299 282 254 249 242 187 151 181 179 172 172 181 139 170 233 211 156 157 158 167 191 252 287 196 244
21 18 17 15 14 12 10 9 7 4 1 353 348 348 343 315 183 184 124 46 352 345 289 289 253 244 230 220 226 195 180 181 170 176 188 215 134 136 164 163 179 197 219 225 274 320 211
19 16 14 13 11 10 8 7 5 5 5 357 349 354 358 53 169 185 194 326 330 327 320 265 239 238 185 185 213 205 193 176 176 214 171 237 197 216 218 226 204 228 210 231 242 263 273
14 14 13 11 10 8 6 6 4 3 5 1 355 4 18 121 118 148 261 306 319 285 316 52 135 164 172 185 143 190 193 191 183 171 179 188 177 174 188 207 181 227 156 192 226 232 228
11 10 9 8 7 6 5 5 4 2 5 4 1 6 46 97 82 0 296 304 164 249 248 30 126 168 158 225 179 128 176 188 162 155 221 239 195 204 227 163 188 141 172 123 124 187 245
7 4 4 4 4 3 2 3 4 2 3 7 7 31 51 64 24 10 346 158 238 218 341 7 10 351 251 202 218 172 173 190 203 190 229 237 236 220 195 238 167 187 196 250 222 205 254
2 1 0 -0 360 360 358 357 1 2 1 8 5 21 21 20 2 357 11 81 220 4 331 350 335 316 220 203 197 209 163 203 219 193 170 216 228 202 190 214 227 194 207 226 254 228 247
2 2 359 358 357 356 357 356 356 360 0 3 6 279 327 344 342 348 351 220 283 335 328 321 314 294 220 215 306 211 218 224 216 198 215 201 234 134 210 155 190 168 209 272 220 80 253
359 357 358 358 359 0 360 359 357 0 2 359 359 278 357 346 334 332 84 237 299 18 330 312 289 321 282 289 294 270 207 158 168 202 218 213 253 228 153 129 57 226 145 173 190 240 240
356 355 356 357 358 359 1 2 0 1 3 3 2 16 349 335 334 28 59 8 312 352 5 313 307 295 280 297 269 248 239 205 206 152 175 162 222 176 165 205 206 156 195 89 181 208 255
355 356 356 356 356 359 2 4 3 1 2 8 5 13 353 3 28 31 37 329 328 336 360 338 298 279 266 285 258 247 243 262 359 247 223 137 197 232 221 113 303 196 243 206 221 217 231
356 355 356 356 359 360 2 3 3 3 5 5 354 335 4 2 59 23 332 315 319 9 3 348 325 5 1 296 281 244 237 92 15 328 231 181 216 238 226 200 167 222 186 186 108 71 223
352 354 355 358 359 359 359 0 3 7 9 7 5 356 7 52 67 15 352 344 335 347 87 0 349 25 350 307 302 287 308 18 344 3 356 211 199 227 242 259 139 204 201 202 228 239 251
351 354 357 358 359 358 358 1 3 7 11 16 27 56 18 348 0 354 324 352 331 345 348 4 125 39 5 297 311 287 7 333 325 8 9 340 248 225 251 250 241 264 257 220 218 239 239
353 356 357 358 359 359 0 1 5 5 13 32 41 5 349 359 324 336 10 39 7 348 319 338 6 341 333 283 314 310 340 304 292 332 340 359 272 267 267 263 248 258 255 252 237 241 244
354 355 356 358 359 2 5 5 6 9 17 45 39 13 2 18 355 335 49 351 322 339 294 303 339 319 303 312 311 293 281 267 264 281 297 299 287 230 260 254 251 258 243 236 234 229 233
352 355 357 1 5 7 8 9 10 14 26 36 36 37 17 353 336 324 317 317 317 319 295 295 303 292 301 316 306 285 262 254 250 246 238 249 255 249 265 242 238 258 328 248 237 236 224
353 357 2 6 8 9 9 12 14 13 22 33 40 39 33 307 291 310 327 323 312 313 298 297 296 286 310 302 287 281 245 242 237 236 227 218 229 242 231 224 259 264 260 231 214 244 229
357 2 7 9 8 10 14 18 19 15 11 17 22 15 2 303 304 321 305 301 303 308 311 295 305 302 315 280 251 251 255 301 258 249 226 218 228 219 195 225 234 283 278 259 244 260 246
2 6 8 9 11 16 17 17 17 11 4 6 1 350 341 294 286 314 302 308 299 300 289 300 319 310 307 255 252 253 256 265 253 247 274 187 211 218 225 237 257 283 336 334 206 229 336
5 5 7 10 11 11 10 9 8 4 357 353 351 348 329 296 295 282 292 280 279 269 267 299 309 67 265 255 275 277 273 12 271 266 266 254 235 200 222 234 241 15 296 240 332 319 312
5 3 3 3 0 0 356 359 358 352 347 345 343 344 327 291 280 304 296 287 263 278 274 246 257 295 307 306 318 318 309 270 310 289 349 254 348 306 288 220 352 334 300 302 293 275 299
Wind_Speed_850mb
40 42 43 45 45 45 46 47 48 48 47 45 41 36 29 23 14 10 8 6 6 5 7 8 6 4 3 3 4 6 10 24 19 19 25 26 18 10 9 9 7 4 3 7 15 21 12
42 42 44 45 45 46 46 47 47 47 46 45 41 37 31 24 17 11 7 6 5 4 5 8 7 5 4 5 8 11 13 17 16 21 29 24 12 13 13 5 2 4 7 14 11 11 4
45 45 45 45 46 47 48 48 47 47 46 45 42 37 31 23 17 12 8 7 5 3 4 7 6 6 10 7 13 15 17 11 11 22 29 22 14 8 7 9 2 2 7 5 6 8 7
48 48 48 48 48 49 48 48 48 47 46 45 43 38 30 22 15 12 8 6 4 1 2 5 6 6 8 12 18 18 21 17 17 25 24 16 7 7 6 6 5 3 2 6 6 10 6
51 51 52 52 52 52 51 50 49 49 47 46 43 39 32 20 12 12 11 6 5 4 4 5 7 7 6 13 20 23 20 11 21 25 20 19 7 7 6 5 5 9 7 4 5 3 13
56 57 58 58 57 56 55 54 52 50 49 47 44 40 33 19 7 9 13 4 7 7 8 9 13 7 10 8 20 24 26 13 17 30 18 8 6 5 5 4 4 5 3 3 7 1 12
59 60 62 62 60 59 58 58 56 53 51 48 44 40 33 16 5 3 10 5 8 5 8 13 4 5 5 6 12 20 33 26 25 15 11 7 11 14 9 6 10 10 6 7 9 10 7
61 64 66 66 64 62 62 62 61 58 54 50 45 41 31 12 6 4 4 5 10 13 17 28 32 39 36 13 7 18 37 20 12 15 12 9 18 16 10 16 12 9 5 7 14 4 8
62 65 68 68 68 66 66 67 67 63 57 51 47 41 26 6 11 9 9 8 13 16 10 15 15 21 34 35 12 25 44 21 9 14 16 16 4 18 14 12 12 9 9 8 9 7 5
61 66 69 70 69 70 70 70 70 69 62 52 46 37 20 3 11 15 7 8 16 16 6 6 6 5 22 18 12 23 44 22 7 23 13 11 9 15 11 13 17 10 21 11 8 5 11
61 64 69 73 75 74 73 72 72 70 67 54 42 29 16 4 7 9 6 10 16 1 6 3 4 9 21 22 13 24 45 22 19 14 13 8 16 14 11 12 24 8 15 15 9 13 6
59 63 68 73 75 79 79 75 72 71 64 58 38 24 13 16 12 7 10 10 3 2 7 5 8 7 12 16 4 12 18 12 8 11 8 12 5 9 10 8 22 8 7 6 4 7 16
59 62 67 71 75 79 81 79 75 71 65 57 30 14 15 11 13 19 10 7 2 6 9 9 7 8 9 13 13 8 18 23 20 13 23 23 28 8 10 14 10 9 8 7 10 10 12
59 63 67 70 74 77 79 79 75 72 67 54 29 2 8 11 17 22 11 3 6 3 5 7 9 13 6 1 6 8 13 17 18 8 5 18 12 19 16 28 14 16 16 12 10 9 6
58 63 67 70 73 74 76 76 74 72 67 56 30 6 9 14 17 20 10 1 3 2 10 14 17 4 3 1 5 6 13 14 14 26 22 14 15 0 4 8 13 12 15 3 7 3 6
59 62 68 69 71 74 73 73 74 71 66 59 35 5 13 20 19 17 3 2 2 5 12 5 6 3 4 3 4 3 8 5 8 11 13 9 17 8 7 9 14 10 19 7 5 10 12
60 63 65 67 71 73 72 72 73 72 69 61 34 5 20 23 17 5 2 2 6 6 14 6 6 8 6 6 4 4 3 3 6 7 11 11 9 8 8 18 28 10 11 3 3 6 15
61 61 64 67 70 68 68 69 72 75 71 66 29 5 31 29 8 7 5 14 12 12 14 8 6 6 6 5 7 8 12 8 15 2 6 3 5 13 22 4 3 1 14 25 17 21 6
58 60 63 66 64 65 64 66 67 69 70 63 26 14 27 23 7 8 13 9 7 16 14 13 7 11 9 7 9 10 8 7 25 4 4 10 8 15 13 8 7 11 10 6 4 4 25
57 58 60 58 60 64 67 68 66 65 61 43 17 9 16 26 19 8 12 7 11 21 3 14 13 10 10 6 4 10 7 6 21 15 13 6 11 16 25 14 4 8 11 13 18 17 27
54 55 54 56 59 63 65 66 68 67 61 35 18 8 9 9 12 13 7 12 12 13 14 20 6 21 13 9 11 7 13 18 9 18 10 4 18 14 24 23 17 27 30 24 28 34 29
50 50 51 54 57 60 62 66 69 68 59 36 12 13 14 9 12 15 14 9 12 11 9 12 12 27 19 11 10 11 18 7 9 16 14 10 12 17 35 29 26 40 43 43 42 42 40
46 47 50 53 54 56 58 60 62 61 57 27 24 16 8 14 13 10 5 14 15 23 13 8 30 30 24 21 32 38 43 43 39 26 15 11 6 5 33 17 23 31 41 44 41 33 33
43 45 47 48 51 52 51 51 52 52 48 40 34 20 11 6 14 10 25 25 19 20 27 43 47 31 15 43 48 43 45 51 54 48 45 23 17 8 14 7 27 23 10 25 39 39 36
42 42 44 46 47 47 46 45 42 42 39 35 30 25 8 6 16 23 24 25 35 33 28 30 34 23 35 30 17 18 13 14 30 50 48 47 30 16 12 21 31 36 3 8 16 24 27
38 39 42 43 42 39 39 40 39 35 37 36 25 22 7 12 3 19 21 27 22 22 20 25 33 38 19 15 12 15 11 15 10 4 10 39 34 26 11 15 26 18 7 46 14 31 20
36 38 39 37 34 33 36 38 37 36 35 34 30 24 12 12 16 23 21 17 17 23 15 33 21 19 16 7 13 17 23 18 15 20 20 9 15 34 29 17 17 8 11 6 21 1 18
34 35 34 32 30 30 32 34 35 35 33 35 31 24 18 16 45 22 19 28 26 26 16 26 20 2 8 8 6 7 10 5 10 15 19 12 8 11 21 24 36 22 9 22 13 18 17
32 31 30 29 28 28 30 35 36 36 35 37 35 31 26 28 42 54 28 26 36 36 36 13 14 15 9 8 4 6 10 5 10 8 5 13 9 10 7 6 14 14 18 25 22 24 13
Wind_Direction_850mb
35 32 29 27 25 23 21 21 20 19 16 13 11 10 7 4 357 346 339 329 316 286 228 213 225 260 265 233 151 125 141 166 174 167 161 147 137 124 123 129 127 172 183 219 286 299 297
32 30 27 24 22 20 18 16 16 14 13 11 8 5 4 4 3 358 358 351 338 317 203 190 203 230 230 227 151 140 139 164 179 171 158 146 125 119 101 116 132 194 268 284 301 310 322
32 29 26 23 19 17 15 13 11 10 8 7 6 1 358 357 0 0 2 7 11 47 149 180 195 226 238 201 164 154 152 165 165 168 162 149 104 101 123 135 359 132 291 324 50 346 35
31 29 26 22 19 15 12 10 7 5 3 1 1 359 351 349 350 357 348 349 348 24 179 193 209 238 248 195 185 178 171 177 163 165 174 169 138 106 121 122 62 101 91 161 25 334 24
30 28 26 22 17 14 11 8 4 2 360 357 356 355 346 342 339 350 341 305 326 289 254 232 241 240 244 197 185 182 173 169 168 164 156 150 164 124 120 130 129 35 115 31 334 49 338
31 27 24 20 15 12 9 7 3 0 358 354 351 352 344 334 317 342 350 318 308 279 253 254 249 274 219 163 182 190 180 154 154 158 148 170 127 141 120 186 219 140 150 192 267 124 307
27 24 21 18 16 13 11 8 3 360 356 352 348 348 342 327 267 331 11 346 332 305 271 238 232 237 168 183 183 183 181 147 142 162 173 158 199 204 187 162 130 141 167 264 263 246 270
24 21 19 16 15 14 13 10 5 1 358 352 348 347 340 322 214 197 53 73 16 316 299 282 254 249 242 187 151 181 179 172 172 181 139 170 233 211 156 157 158 167 191 252 287 196 244
21 18 17 15 14 12 10 9 7 4 1 353 348 348 343 315 183 184 124 46 352 345 289 289 253 244 230 220 226 195 180 181 170 176 188 215 134 136 164 163 179 197 219 225 274 320 211
19 16 14 13 11 10 8 7 5 5 5 357 349 354 358 53 169 185 194 326 330 327 320 265 239 238 185 185 213 205 193 176 176 214 171 237 197 216 218 226 204 228 210 231 242 263 273
14 14 13 11 10 8 6 6 4 3 5 1 355 4 18 121 118 148 261 306 319 285 316 52 135 164 172 185 143 190 193 191 183 171 179 188 177 174 188 207 181 227 156 192 226 232 228
11 10 9 8 7 6 5 5 4 2 5 4 1 6 46 97 82 0 296 304 164 249 248 30 126 168 158 225 179 128 176 188 162 155 221 239 195 204 227 163 188 141 172 123 124 187 245
7 4 4 4 4 3 2 3 4 2 3 7 7 31 51 64 24 10 346 158 238 218 341 7 10 351 251 202 218 172 173 190 203 190 229 237 236 220 195 238 167 187 196 250 222 205 254
2 1 0 -0 360 360 358 357 1 2 1 8 5 21 21 20 2 357 11 81 220 4 331 350 335 316 220 203 197 209 163 203 219 193 170 216 228 202 190 214 227 194 207 226 254 228 247
2 2 359 358 357 356 357 356 356 360 0 3 6 279 327 344 342 348 351 220 283 335 328 321 314 294 220 215 306 211 218 224 216 198 215 201 234 134 210 155 190 168 209 272 220 80 253
359 357 358 358 359 0 360 359 357 0 2 359 359 278 357 346 334 332 84 237 299 18 330 312 289 321 282 289 294 270 207 158 168 202 218 213 253 228 153 129 57 226 145 173 190 240 240
356 355 356 357 358 359 1 2 0 1 3 3 2 16 349 335 334 28 59 8 312 352 5 313 307 295 280 297 269 248 239 205 206 152 175 162 222 176 165 205 206 156 195 89 181 208 255
355 356 356 356 356 359 2 4 3 1 2 8 5 13 353 3 28 31 37 329 328 336 360 338 298 279 266 285 258 247 243 262 359 247 223 137 197 232 221 113 303 196 243 206 221 217 231
356 355 356 356 359 360 2 3 3 3 5 5 354 335 4 2 59 23 332 315 319 9 3 348 325 5 1 296 281 244 237 92 15 328 231 181 216 238 226 200 167 222 186 186 108 71 223
352 354 355 358 359 359 359 0 3 7 9 7 5 356 7 52 67 15 352 344 335 347 87 0 349 25 350 307 302 287 308 18 344 3 356 211 199 227 242 259 139 204 201 202 228 239 251
351 354 357 358 359 358 358 1 3 7 11 16 27 56 18 348 0 354 324 352 331 345 348 4 125 39 5 297 311 287 7 333 325 8 9 340 248 225 251 250 241 264 257 220 218 239 239
353 356 357 358 359 359 0 1 5 5 13 32 41 5 349 359 324 336 10 39 7 348 319 338 6 341 333 283 314 310 340 304 292 332 340 359 272 267 267 263 248 258 255 252 237 241 244
354 355 356 358 359 2 5 5 6 9 17 45 39 13 2 18 355 335 49 351 322 339 294 303 339 319 303 312 311 293 281 267 264 281 297 299 287 230 260 254 251 258 243 236 234 229 233
352 355 357 1 5 7 8 9 10 14 26 36 36 37 17 353 336 324 317 317 317 319 295 295 303 292 301 316 306 285 262 254 250 246 238 249 255 249 265 242 238 258 328 248 237 236 224
353 357 2 6 8 9 9 12 14 13 22 33 40 39 33 307 291 310 327 323 312 313 298 297 296 286 310 302 287 281 245 242 237 236 227 218 229 242 231 224 259 264 260 231 214 244 229
357 2 7 9 8 10 14 18 19 15 11 17 22 15 2 303 304 321 305 301 303 308 311 295 305 302 315 280 251 251 255 301 258 249 226 218 228 219 195 225 234 283 278 259 244 260 246
2 6 8 9 11 16 17 17 17 11 4 6 1 350 341 294 286 314 302 308 299 300 289 300 319 310 307 255 252 253 256 265 253 247 274 187 211 218 225 237 257 283 336 334 206 229 336
5 5 7 10 11 11 10 9 8 4 357 353 351 348 329 296 295 282 292 280 279 269 267 299 309 67 265 255 275 277 273 12 271 266 266 254 235 200 222 234 241 15 296 240 332 319 312
5 3 3 3 0 0 356 359 358 352 347 345 343 344 327 291 280 304 296 287 263 278 274 246 257 295 307 306 318 318 309 270 310 289 349 254 348 306 288 220 352 334 300 302 293 275 299